This is the latest recevied weather packets stored in our database for station/object KB2FWP. If no packets are shown the sender has not sent any weather packets the latest 10 day(s).
| Time | Temp. | Humidity | Pressure | Rain* | Wind** | Luminosity | Snow |
|---|---|---|---|---|---|---|---|
| 1777377650 | 11.67° C | 80% | 1023.8 hPa | 0 mm | - | - | - |
| 1777376745 | 10° C | 81% | 1023.9 hPa | 0 mm | - | - | - |
| 1777375848 | 8.33° C | 86% | 1023.7 hPa | 0 mm | - | - | - |
| 1777374941 | 7.22° C | 89% | 1023.5 hPa | 0 mm | - | - | - |
| 1777374040 | 6.67° C | 90% | 1023.5 hPa | 0 mm | - | - | - |
| 1777373139 | 5.56° C | 89% | 1023.6 hPa | 0 mm | - | - | - |
| 1777372242 | 5.56° C | 89% | 1023.5 hPa | 0 mm | - | - | - |
| 1777371337 | 5.56° C | 88% | 1023.7 hPa | 0 mm | - | - | - |
| 1777370445 | 5.56° C | 88% | 1023.6 hPa | 0 mm | - | - | - |
| 1777369535 | 5.56° C | 88% | 1023.4 hPa | 0 mm | - | - | - |
| 1777368633 | 5.56° C | 87% | 1023.5 hPa | 0 mm | - | - | - |
| 1777367732 | 6.11° C | 87% | 1023.4 hPa | 0 mm | - | - | - |
| 1777366835 | 6.11° C | 86% | 1023.4 hPa | 0 mm | - | - | - |
| 1777365929 | 6.11° C | 86% | 1023.4 hPa | 0 mm | - | - | - |
| 1777365030 | 6.67° C | 85% | 1023.5 hPa | 0 mm | - | - | - |
| 1777364125 | 6.67° C | 84% | 1023.6 hPa | 0 mm | - | - | - |
| 1777363226 | 6.67° C | 84% | 1023.7 hPa | 0 mm | - | - | - |
| 1777362322 | 7.22° C | 84% | 1023.5 hPa | 0 mm | - | - | - |
| 1777361420 | 7.22° C | 84% | 1023.5 hPa | 0 mm | - | - | - |
| 1777360580 | 7.22° C | 84% | 1023.5 hPa | 0 mm | - | - | - |
| 1777359620 | 7.22° C | 84% | 1023.7 hPa | 0 mm | - | - | - |
| 1777358715 | 7.78° C | 84% | 1023.9 hPa | 0 mm | - | - | - |
| 1777357813 | 7.78° C | 84% | 1023.8 hPa | 0 mm | - | - | - |
| 1777356913 | 7.78° C | 85% | 1023.9 hPa | 0 mm | - | - | - |
| 1777356023 | 7.78° C | 85% | 1023.8 hPa | 0 mm | - | - | - |
* Rain latest hour (hover to see other rain measurements)
** Current wind speed in m/s (hover to see current wind gust speed)